This is the latest recevied weather packets stored in our database for station/object KR8N. If no packets are shown the sender has not sent any weather packets the latest 10 day(s).
| Time | Temp. | Humidity | Pressure | Rain* | Wind** | Luminosity | Snow |
|---|---|---|---|---|---|---|---|
| 1778100740 | 13.33° C | 94% | 1014.4 hPa | 0 mm | - | 57 W/m² | - |
| 1778100437 | 13.33° C | 94% | 1014.4 hPa | 0 mm | - | 88 W/m² | - |
| 1778100134 | 13.33° C | 94% | 1014.9 hPa | 0 mm | - | 56 W/m² | - |
| 1778099833 | 13.33° C | 95% | 1014.5 hPa | 0 mm | - | 126 W/m² | - |
| 1778099530 | 13.33° C | 95% | 1014.6 hPa | 0 mm | - | 61 W/m² | - |
| 1778099227 | 13.33° C | 94% | 1014.6 hPa | 0 mm | - | 66 W/m² | - |
| 1778098923 | 13.33° C | 94% | 1014.5 hPa | 0 mm | - | 56 W/m² | - |
| 1778098621 | 13.89° C | 94% | 1014.5 hPa | 0 mm | - | 70 W/m² | - |
| 1778098316 | 13.89° C | 94% | 1014.3 hPa | 0 mm | - | 63 W/m² | - |
| 1778098014 | 13.89° C | 94% | 1014.1 hPa | 0 mm | - | 64 W/m² | - |
| 1778097710 | 14.44° C | 93% | 1014.1 hPa | 0 mm | - | 63 W/m² | - |
| 1778097407 | 14.44° C | 93% | 1014.2 hPa | 0 mm | - | 65 W/m² | - |
| 1778097103 | 15° C | 93% | 1014.1 hPa | 0 mm | - | 45 W/m² | - |
| 1778096801 | 15° C | 93% | 1014 hPa | 0 mm | - | 78 W/m² | - |
| 1778096497 | 15° C | 93% | 1013.8 hPa | 0 mm | - | 77 W/m² | - |
| 1778096195 | 15° C | 93% | 1013.8 hPa | 0 mm | - | 191 W/m² | - |
| 1778095892 | 15° C | 93% | 1014 hPa | 0 mm | - | 119 W/m² | - |
| 1778095589 | 15° C | 93% | 1013.8 hPa | 0 mm | - | 138 W/m² | - |
| 1778095284 | 15° C | 93% | 1014 hPa | 1.78 mm | - | 144 W/m² | - |
| 1778094981 | 15° C | 92% | 1013.9 hPa | 1.78 mm | - | 170 W/m² | - |
| 1778094677 | 15° C | 91% | 1014 hPa | 1.27 mm | - | 145 W/m² | - |
| 1778094375 | 15.56° C | 90% | 1014 hPa | 3.05 mm | - | 48 W/m² | - |
| 1778094071 | 16.67° C | 89% | 1013.8 hPa | 1.78 mm | - | 42 W/m² | - |
| 1778093769 | 16.67° C | 92% | 1013.8 hPa | 0 mm | - | 145 W/m² | - |
| 1778093465 | 16.67° C | 91% | 1013.7 hPa | 0 mm | - | 170 W/m² | - |
* Rain latest hour (hover to see other rain measurements)
** Current wind speed in m/s (hover to see current wind gust speed)